Showing default

HULIANWANG DIGUI-183, 100208

Orbit data source: Space-Track

HULIANWANG DIGUI-183, 100208 is a payload satellite owned by Zhongguo Xingwang (CN) in LEO that was launched on Tue, 04 Aug 2026 UTC launched from the Wenchang Satellite Launch Center (WSC). Payload-class satellites include a variety of spacecraft equipped with specific instruments for various scientific and technological missions. These include communications satellites like Starlink; space stations such as the ISS; scientific satellites like the Hubble; Earth observation satellites from companies like Planet Labs, Umbra, and HawkEye 360; GPS; miniature CubeSats for education and research; and military/defense satellites.

Loading next visibility...
Identifier
100208, 2026-176F
Orbit
LEO
Country
Flag of CNCN / PRC
Related business
Manufacturer
CAST?
Mission
Operational spacecraft
Bus & Motor
XINGWANG C, Unknown motor
Mass
~700 kg wet, ~700 kg dry
Launch date (UTC)
2026-08-04 (2 months ago)
Launch vehicle
Unknown
Launch site
Wenchang Satellite Launch Center (WSC)
Object type
Payload
Rocket body
Debris
Shape & HBR
BOX + 2 PAN, 14.5 m
Radar Cross Section
Large (>1 m²)

Expand to show TLE details & history
Last TLE update: 21 hours ago

TLE from 21 hours ago
0 HULIANWANG DIGUI-183
1 A0208U 26176F   26263.22700476 -.00000093  00000-0  67620-4 0  9997
2 A0208  49.9932 224.8751 0000292  25.8511 334.2375 13.29328056  6262
Epoch: 2026-09-20T05:26Z
TLE epoch observation values (Epoch: 2026-09-20T05:26:53.211Z)
Latitude
-0.00005°
Longitude
144.02913°
Altitude
1,149.606 km
Speed
7.279 km/s
True Right ascension
14h 59m 30s
True Declination
0° 00' 00"
Sunlit
Object was in daylight at epoch
Visualization orbit readout
Latitude
Unknown
Longitude
Unknown
Altitude
Unknown
Speed
Unknown
Apparent Right ascension
Unknown
Apparent Declination
Unknown
Sunlit
N/A
Visualization observer readout
Local Sidereal Time
19:11:01
Azimuth
Unknown
Elevation
Unknown
Doppler factor
Unknown
Orbital elements
Apogee altitude
1,150.225 km
Perigee altitude
1,149.785 km
Semi-major axis
7,528.142 km
Eccentricity
0.00003
Inclination
49.9932°
RAAN
224.8751°
Arg. of periapsis
25.8511°
True anomaly
334.23605°
Mean anomaly
334.2375°
Eccentric anomaly
334.23677°
Mean motion
3.32286 °/min
Orbital period
108.34 mins
BSTAR
0.00006762
Loading maneuver chart data...
Computing Atmospheric mass density...
Loading historical data...
Loading historical data...
Loading historical data...
Loading historical data...
Loading historical data...
Loading historical data...
Loading historical data...

Documentation

Showing up to 5 results
|